sim
Sign-in with your pilot id or email,
or register
Callsign
Passwort

Schedule Details

Flight Number: RYR3368
Departure: Shannon Airport (EINN) at 06:20
Arrival: Fuerteventura Airport (GCFV) at 10:30
Route: Ryanair Passenger Schedule. Enter filed route here before submitting Pirep.

Weather Information
Getting current METAR information for EINN 211830Z 24004KT 9999 FEW006 SCT010 BKN018 14/13 Q1018 NOSIG
Getting current METAR information for GCFV 211830Z 01019KT CAVOK 26/18 Q1013

Schedule Frequency

Route Map